Estación Meteorológica Peña el Pijo (Robertgarden) [ 07/23/19 00:27:53 CEST ]

Fecha Hora Presion(HPa) Temp (°C) Humedad % Rocio (°C) Viento ( m/s) Direccion Lluvia 1Hora(mm) Lluvia 24H(mm) LLuvia Total(mm)
2019-Jul-03 01:09:10 1009.800 - - - - NNW     342.62
2019-Jul-03 02:09:25 1009.600 - - - - NNW     342.62
2019-Jul-03 03:09:24 1009.600 - - - - NNW     342.62
2019-Jul-03 04:12:38 1009.600 - - - - NNW     342.62
2019-Jul-03 05:08:55 1009.500 - - - - NNW     342.62
2019-Jul-03 06:08:27 1009.600 - - - - NNW     342.62
2019-Jul-03 07:09:04 1009.300 - - - - NNW     342.62
2019-Jul-03 08:09:08 1009.400 - - - - NNW     342.62
2019-Jul-03 09:09:33 1009.200 - - - - NNW     342.62
2019-Jul-03 10:09:08 1009.000 - - - - NNW     342.62
2019-Jul-03 11:09:01 1008.900 - - - - NNW     342.62
2019-Jul-03 12:09:22 1009.000 - - - - NNW     342.62
2019-Jul-03 13:09:06 1008.900 - - - - NNW     342.62
2019-Jul-03 14:09:12 1008.600 - - - - NNW     342.62
2019-Jul-03 15:08:57 1008.000 - - - - NNW     342.62
2019-Jul-03 16:09:09 1007.800 - - - - NNW     342.62
2019-Jul-03 17:08:56 1007.500 - - - - NNW     342.62
2019-Jul-03 18:09:10 1007.300 - - - - NNW     342.62
2019-Jul-03 19:08:58 1007.500 - - - - NNW     342.62
2019-Jul-03 20:09:23 1008.000 - - - - NNW     342.62
2019-Jul-03 21:09:14 1008.300 - - - - NNW     342.62
2019-Jul-03 22:08:58 1008.700 - - - - NNW     342.62
2019-Jul-03 23:09:19 1009.400 - - - - NNW     342.62

Temperatura Máxima:    Temperatura Mínima:
Presión Máxima:1009.800 Hpa    Presión Mínima:1007.300 Hpa


Volver